ATLAS 5 CENTAUR DEB, 43973

Orbit data source: Space-Track

ATLAS 5 CENTAUR DEB, 43973 is space debris in HEO originally from a launch on Wed, 17 Sep 2014 UTC launched from the Air Force Eastern Test Range (AFETR). Debris objects in space refer to the collection of defunct objects orbiting the Earth. Examples of debris include non-operational satellites, rocket bodies, and fragments generated from explosions, collisions, or faulty payload assembly.

Loading next visibility...
ATLAS 5 CENTAUR DEB details
Identifier
43973, 2014-055AC
Orbit
HEO
Last TLE update1 week ago
Origin
Flag of USULA (US)
ManufacturerUnknown
MissionSpacecraft
Bus & MotorUnknown
MassUnknown
Launch date (UTC)
2014-09-17 (10 years ago)
Launch vehicleUnknown
Launch site
Air Force Eastern Test Range (AFETR)
Object type
Payload
Rocket body
Debris
Shape & HBRUnknown
Radar Cross SectionSmall (<0.1 m²)

Expand to show TLE details & history

TLE from 1 week ago
0 ATLAS 5 CENTAUR DEB
1 43973U 14055AC  24340.22171967 -.00000015  00000-0  00000-0 0  9996
2 43973  20.2338 168.5071 5122799 127.7538 290.7767  1.92518064 44093
Epoch: 2024-12-05T05:19Z
Definitive object data (Epoch: 2024-12-05T05:19:16.579Z)
Latitude-0.00003°
Longitude14.23646°
Altitude22,906.397 km
Speed3.552 km/s
True Right ascension11h 14m 14s
True Declination0° 00' 00"
Sunlit
Object was in daylight at TLE epoch
Visualization TLE readout
Latitude-15.48305°
Longitude-118.12001°
Altitude15,951.973 km
Speed4.593 km/s
Apparent Right ascension02h 03m 55s
Apparent Declination-30° 36' 12"
Sunlit
Object is in daylight
Visualization observer readout
Local Sidereal Time03:38:15
Azimuth201.011° SSW
Elevation16.161°
Doppler factor1
Orbital elements
Apogee altitude34,903.149 km
Perigee altitude6,935.346 km
Semi-major axis27,297.385 km
Eccentricity0.5122799
Inclination20.2338°
RAAN168.5071°
Arg. of periapsis127.7538°
True anomaly232.332°
Mean anomaly290.7767°
Eccentric anomaly261.73041°
Mean motion0.48124 °/min
BSTARUnknown
Orbital period748.07 mins
Loading maneuver chart data...

ATLAS 5 CENTAUR DEB Visibility forecast

Observer location: undefined°, undefined

Span
Click to sort rows by Start time (UTC) header in descending order
Start Az.
Max El. time (UTC)
Max El. Az.
Max El.
End time (UTC)
End Az.
647 mins2024-12-14 05:05:15.717Z201° SSW2024-12-14 15:04:15.717Z164.203° S38.169°2024-12-14 15:52:15.717Z95.334° ESE
|